Voltar ao catálogo

ONEWEB-0492

AtivoComunicaçõesPO
NORAD 54114·PAYLOAD·🇬🇧 United Kingdom

Lançado Oct 22, 2022 de Satish Dhawan Space Centre

Loading…

Próximas Passagens (próximas 24 horas)

TLE

AtualizadoSource: CelesTrak SupGP

Época: Sep 14, 2026, 19:10 UTC

1 54114C 22138B   26257.79878889 -.00000023  00000+0 -58460-4 0  2577
2 54114  87.9114 287.1175 0001800  88.5633  23.0619 13.19724975    10

Acompanhe ONEWEB-0492 em tempo real com AllMySat

Download on the App Store